User: anonymous   Login
Location: Unspecified
(0.0000°N, 0.0000°E)
Time: 08:04:42
(UTC+00:00)
Language:

COMPASS 2 - Orbit

View from above orbital plane
View from above orbital plane
View from above satellite
View from above satellite

Ground track
Ground track

The orbit data is extracted from the following two-line orbital elements,

1 42777U 17036N   19345.67046828 +.00001330 +00000-0 +58850-4 0  9994
2 42777 097.3331 039.9200 0011374 328.8330 031.2231 15.23356841137057
Epoch (UTC): 11 December 2019 16:05:28
Eccentricity: 0.0011374
inclination: 97.3331°
perigee height: 488 km
apogee height: 503 km
right ascension of ascending node: 39.9200°
argument of perigee: 328.8330°
revolutions per day: 15.23356841
mean anomaly at epoch: 31.2231°
orbit number at epoch: 13705

The dashed part of the orbit path shows where the satellite is in the earth's shadow,  

DLR